GW5426 Weather Reports


time (UTC)temp
C
wind
direction
speed
KPH
gust
KPH
rain 1hr
cm
rain 24hr
cm
rain mn
cm
humidity
%
barometer
mb
20260505140319 8 328 6.4 20.9 0.00 0.00 0.00 53 1004.7
20260505124818 8 318 11.3 22.5 0.00 0.00 0.00 59 1003.7
20260505123318 8 263 9.7 17.7 0.00 0.00 0.00 64 1003.7
20260505121830 8 157 3.2 19.3 0.00 0.00 0.00 64 1004.1
20260505120327 7 345 11.3 19.3 0.00 0.00 0.00 67 1002.4
20260505114829 8 336 9.7 22.5 0.00 0.00 0.00 70 1002.4
20260505113327 7 339 8.0 16.1 0.00 0.00 0.00 73 1002.5
20260505111824 7 312 6.4 16.1 0.00 0.00 0.00 78 1002.2
20260505110338 7 253 6.4 14.5 0.00 0.00 0.00 83 1001.7
20260505101818 6 263 1.6 4.8 0.00 0.00 0.00 82 1001.2
20260505100336 7 230 0.0 4.8 0.00 0.00 0.00 81 1000.7
20260505094830 6 335 3.2 6.4 0.00 0.00 0.00 83 1000.6
20260505093324 6 281 0.0 4.8 0.00 0.00 0.00 82 1000.0
20260505091835 7 263 3.2 6.4 0.00 0.00 0.00 80 999.9
20260505090334 7 129 0.0 4.8 0.00 0.00 0.00 77 999.6
20260505084834 8 252 1.6 8.0 0.00 0.00 0.00 73 999.1
20260505083332 9 312 4.8 11.3 0.00 0.00 0.00 69 998.6
20260505081836 10 136 1.6 11.3 0.00 0.00 0.00 66 998.6
20260505080335 10 139 1.6 9.7 0.00 0.00 0.00 65 998.2
20260505074845 10 117 4.8 11.3 0.00 0.00 0.00 64 998.3
20260505073342 10 285 6.4 17.7 0.00 0.00 0.00 62 998.1
20260505071828 11 276 11.3 24.1 0.00 0.00 0.00 60 998.0
20260505070316 11 288 8.0 19.3 0.00 0.00 0.00 60 998.2
20260505064825 11 310 8.0 25.7 0.00 0.00 0.00 62 997.9
20260505063340 10 292 3.2 11.3 0.00 0.00 0.00 72 997.5
20260505061848 10 244 0.0 4.8 0.00 0.00 0.00 82 997.8
20260505060404 10 237 0.0 6.4 0.00 0.00 0.00 83 997.4
20260505054846 11 201 1.6 4.8 0.00 0.00 0.00 82 997.5
20260505053342 11 271 1.6 6.4 0.00 0.00 0.00 82 997.4
20260505051825 11 107 0.0 3.2 0.00 0.00 0.00 82 997.2
20260505050322 11 217 0.0 3.2 0.00 0.00 0.00 82 996.9
20260505034844 12 171 3.2 9.7 0.00 0.00 0.00 77 996.4
20260505033333 13 227 6.4 25.7 0.00 0.00 0.00 75 996.7
20260505031821 15 191 9.7 24.1 0.00 0.00 0.00 72 996.0
20260505030337 16 263 3.2 22.5 0.00 0.00 0.00 70 995.6
20260505024816 17 225 9.7 22.5 0.00 0.00 0.00 67 994.7
20260505023333 17 214 12.9 30.6 0.00 0.00 0.00 65 994.6
20260505021822 17 202 9.7 38.6 0.00 0.00 0.00 65 994.4
20260505020317 17 206 12.9 37.0 0.00 0.00 0.00 65 994.6
20260505014823 17 232 16.1 30.6 0.00 0.00 0.00 65 994.1
20260505013339 17 240 14.5 35.4 0.00 0.00 0.00 64 994.0
20260505011829 17 345 11.3 27.4 0.00 0.00 0.00 66 994.2
20260505010347 19 238 20.9 43.5 0.00 0.00 0.00 63 993.6
20260505004828 20 162 16.1 29.0 0.00 0.00 0.00 62 993.6
20260505003326 20 267 11.3 35.4 0.00 0.00 0.00 60 993.6
20260505001831 21 144 11.3 27.4 0.00 0.00 0.00 57 993.4
20260505000334 22 168 12.9 30.6 0.00 0.00 0.00 48 993.4
20260504234842 23 188 8.0 19.3 0.00 0.00 0.00 42 993.2
20260504233332 23 216 4.8 16.1 0.00 0.00 0.00 41 993.4
20260504231844 24 217 4.8 16.1 0.00 0.00 0.00 41 993.5
20260504230340 23 193 4.8 12.9 0.00 0.00 0.00 42 993.9
20260504224818 23 158 6.4 17.7 0.00 0.00 0.00 43 994.2
20260504223333 23 162 8.0 22.5 0.00 0.00 0.00 42 994.5
20260504221822 23 139 9.7 19.3 0.00 0.00 0.00 42 994.8
20260504220316 23 169 11.3 22.5 0.00 0.00 0.00 45 994.9
20260504214823 23 176 9.7 20.9 0.00 0.00 0.00 44 995.2
20260504213318 23 200 11.3 25.7 0.00 0.00 0.00 45 995.3
20260504211848 23 270 11.3 22.5 0.00 0.00 0.00 47 995.4
20260504210345 23 190 11.3 25.7 0.00 0.00 0.00 48 995.6
20260504204835 23 136 9.7 30.6 0.00 0.00 0.00 49 995.8
20260504203334 23 178 12.9 27.4 0.00 0.00 0.00 51 996.0
20260504201826 22 222 12.9 27.4 0.00 0.00 0.00 54 996.2
20260504200323 22 6 14.5 29.0 0.00 0.00 0.00 55 996.4
20260504194823 21 220 12.9 30.6 0.00 0.00 0.00 56 996.7
20260504193344 21 212 12.9 30.6 0.00 0.00 0.00 54 996.8
20260504191834 21 176 16.1 33.8 0.00 0.00 0.00 53 996.8
20260504190334 21 117 11.3 24.1 0.00 0.00 0.00 53 997.0
20260504184816 21 117 14.5 32.2 0.00 0.00 0.00 52 997.1
20260504183333 21 204 16.1 35.4 0.00 0.00 0.00 51 997.1
20260504181842 21 218 11.3 30.6 0.00 0.00 0.00 51 996.9
20260504180338 20 252 17.7 32.2 0.00 0.00 0.00 51 997.1
20260504174822 20 167 14.5 32.2 0.00 0.00 0.00 51 997.3
20260504173338 20 212 12.9 29.0 0.00 0.00 0.00 52 997.4
20260504171850 20 330 11.3 25.7 0.00 0.00 0.00 50 997.5
20260504170323 20 185 11.3 27.4 0.00 0.00 0.00 49 997.7
20260504160323 18 281 11.3 27.4 0.00 0.00 0.00 56 998.3
20260504150319 16 239 9.7 24.1 0.00 0.00 0.00 62 999.1